Preview of NWS' New Version of Forecast
This preview is not operational and should not be used for support decisions.
Latest weather observations around

Los Angeles, Los Angeles International Airport (KLAX)

Using English Units (Switch to International System of Units)
Date/ Time (PDT) Wind (mph) Vis. (mi) Weather Sky Cond. Temp (°F) Rel. Humidity Wind Chill (°F) Heat Index (°F) Pressure Precip. (in)
Air Dwpt 6 hour Altimeter (inHg) Sea level (inHg) 1 hr 3 hr 6 hr
Max Min
Apr 22 21:53 S 6 7 Mostly Clear FEW005 59 56     90%     29.96 29.95      
Apr 22 19:53 3 7 Partly Cloudy SCT008 SCT250 60 57     90%     29.91 29.91      
Apr 22 18:53 WSW 11 9 Mostly Clear FEW010 FEW250 62 57     84%     29.9 29.89      
Apr 22 17:53 W 11 10 Mostly Clear FEW010 65 57     76%     29.9 29.89      
Apr 22 16:53 W 11 10 Mostly Clear FEW050 65 55     70%     29.9 29.89      
Apr 22 15:53 WSW 14 10 Clear CLR 67 55     66%     29.9 29.9      
Apr 22 14:53 W 13 10 Mostly Clear FEW250 70 53     55%     29.92 29.92      
Apr 22 13:53 WSW 10 10 Mostly Clear FEW300 72 52     49%   71 29.93 29.92      
Apr 22 12:53 WSW 11 10 Mostly Clear FEW300 69 54     59%     29.94 29.93      
Apr 22 11:53 WSW 13 10 Mostly Clear FEW230 FEW300 67 55     66%     29.95 29.94      
Apr 22 10:53 WSW 9 10 Mostly Clear FEW230 FEW300 68 54     61%     29.95 29.95      
Apr 22 09:53 W 7 10 Mostly Clear FEW230 FEW300 69 54     59%     29.95 29.94      
Apr 22 08:53 Calm 10 Partly Cloudy FEW230 SCT300 66 54     65%     29.95 29.94      
Apr 22 07:53 ESE 5 9 Partly Cloudy FEW200 SCT250 SCT300 62 53     72%     29.95 29.95      
Apr 22 06:53 E 5 9 Partly Cloudy FEW200 SCT250 SCT300 58 53     84%     29.94 29.93      
Apr 22 05:53 ENE 6 10 Partly Cloudy SCT200 57 52     83%     29.94 29.93      
Apr 22 04:53 Calm 10 Mostly Clear FEW200 57 53     87%     29.94 29.93      
Apr 22 03:53 Calm 10 Mostly Clear FEW200 58 53     84%     29.94 29.93      
Apr 22 02:53 WSW 5 10 Mostly Clear FEW180 58 53     84%     29.95 29.94      
Apr 22 01:53 WSW 6 10 Partly Cloudy SCT180 58 53     84%     29.96 29.96      
Apr 22 00:53 NE 3 10 Partly Cloudy SCT180 60 53     78%     29.97 29.96      
Apr 21 23:53 N 3 10 Mostly Cloudy BKN180 60 53     78%     29.98 29.97      
Apr 21 22:53 S 6 10 Mostly Cloudy BKN180 60 53     78%     29.98 29.97      
Apr 21 21:53 WSW 6 10 Partly Cloudy SCT180 61 54     78%     29.97 29.96      
Apr 21 20:53 WSW 9 10 Mostly Cloudy SCT180 BKN220 61 53     75%     29.97 29.96      
Apr 21 19:53 WSW 8 10 Mostly Cloudy SCT180 BKN220 61 53     75%     29.96 29.96      
Apr 21 18:53 WSW 13 10 Mostly Cloudy SCT200 BKN250 62 52     70%     29.96 29.96      
Apr 21 17:53 W 13 10 Mostly Cloudy FEW045 SCT200 BKN250 64 52     65%     29.96 29.96      
Apr 21 16:53 WSW 14 10 Mostly Cloudy SCT045 SCT200 BKN250 65 52     63%     29.97 29.97      
Apr 21 15:53 W 17 10 Partly Cloudy FEW050 SCT220 SCT280 67 50     55%     29.98 29.97      
Apr 21 14:53 W 16 10 Partly Cloudy FEW055 SCT220 SCT280 70 50     49%     29.99 29.99      
Apr 21 13:53 W 15 10 Partly Cloudy FEW055 SCT220 SCT280 70 51     51%     30.02 30.02      
Apr 21 12:53 W 15 10 Partly Cloudy FEW230 SCT300 69 50     51%     30.03 30.03      
Apr 21 11:53 W 13 10 Partly Cloudy FEW230 SCT280 71 51     49%   70 30.04 30.04      
Apr 21 10:53 Calm 10 Mostly Clear FEW300 75 46     36%   74 30.05 30.05      
Apr 21 09:53 ESE 6 10 Mostly Clear FEW300 70 48     46%     30.06 30.06      
Apr 21 08:53 ENE 6 10 Patchy Fog SKC FEW300 65 51     61%     30.07 30.06      
Apr 21 07:53 N 5 10 Patchy Fog SKC FEW300 59 53     81%     30.08 30.07      
Apr 21 06:53 NNE 3 3 Patchy Fog SKC FEW300 53 53     100%     30.06 30.06      
Apr 21 06:40 N 3 1 Patchy Fog SKC SCT300 53 52     96%     30.06        
Apr 21 06:28 Calm 0.75 Patchy Fog SKC 53 53     100%     30.06        
Apr 21 06:12 N 3 0.5 Fog VV001 53 53     100%     30.06        
Apr 21 05:53 Calm 0.25 Fog VV002 53 53     100%     30.06 30.05      
Apr 21 05:15 NNW 3 0.75 Fog/Mist OVC001 54 54     100%     30.05        
Apr 21 04:53 NW 5 1.5 Fog/Mist BKN001 55 53     93%     30.05 30.05      
Apr 21 04:18 WSW 5 8 Mostly Clear FEW001 54 53     97%     30.06        
Apr 21 03:53 W 6 9 Mostly Clear FEW120 55 53     93%     30.05 30.05      
Apr 21 02:53 WSW 6 10 Mostly Clear FEW120 56 51     84%     30.06 30.05      
Apr 21 01:53 Calm 10 Clear CLR 57 52     83%     30.07 30.06      
Apr 21 00:53 WSW 5 10 Clear CLR 58 52     81%     30.1 30.09      
Apr 20 23:53 Calm 10 Clear CLR 57 50     77%     30.11 30.1      
Apr 20 22:53 NE 5 10 Clear CLR 57 51     81%     30.1 30.1      
Apr 20 21:53 Calm 10 Clear CLR 58 52     81%     30.11 30.1      
Apr 20 20:53 WSW 5 10 Clear CLR 58 51     78%     30.1 30.09      
Apr 20 19:53 WSW 11 10 Clear CLR 58 52     81%     30.08 30.07      
Apr 20 18:53 WSW 13 8 Clear CLR 60 51     72%     30.07 30.06      
Apr 20 17:53 WSW 14 10 Clear CLR 61 53     75%     30.06 30.06      
Apr 20 16:53 SW 17 9 Mostly Clear FEW012 62 53     72%     30.06 30.06      
Apr 20 15:53 WSW 20 10 Mostly Clear and Windy FEW015 64 50     60%     30.06 30.06      
Apr 20 14:53 W 20 10 Mostly Clear and Windy FEW015 65 46     50%     30.07 30.06      
Apr 20 13:53 W 16 10 Clear CLR 66 50     56%     30.08 30.07      
Apr 20 12:53 WSW 13 10 Clear CLR 70 49     47%     30.08 30.08      
Apr 20 11:53 5 10 Clear CLR 69 46     44%     30.09 30.09      
Apr 20 10:53 Calm 10 Mostly Clear FEW018 FEW030 65 47     52%     30.12 30.11      
Apr 20 09:53 Calm 8 Partly Cloudy FEW015 SCT027 61 48     62%     30.14 30.14      
Apr 20 09:23 3 8 Partly Cloudy SCT015 SCT026 60 48     64%     30.14        
Apr 20 08:53 SSE 3 8 Mostly Cloudy SCT015 BKN024 57 48     72%     30.15 30.14      
Apr 20 07:53 SE 6 8 Mostly Cloudy SCT012 BKN019 56 48     75%     30.14 30.14      
Apr 20 06:53 E 8 8 Mostly Cloudy SCT011 BKN015 53 47     80%     30.12 30.12      
Apr 20 06:11 ENE 6 8 Mostly Cloudy SCT011 BKN018 52 48     86%     30.12        
Apr 20 05:53 E 7 10 Mostly Clear FEW008 FEW015 52 48     86%     30.11 30.11      
Apr 20 05:01 E 8 10 Mostly Clear FEW008 FEW015 52 48     86%     30.1        
Apr 20 04:53 E 7 10 Mostly Clear FEW015 52 48     86%     30.1 30.09      
Apr 20 03:53 ENE 7 10 Mostly Clear FEW020 52 47     83%     30.09 30.08      
Apr 20 02:53 ENE 3 10 Mostly Clear FEW020 54 49     83%     30.08 30.07      
Apr 20 01:53 E 6 10 Mostly Clear FEW020 55 49     80%     30.06 30.06      
Apr 20 00:53 ENE 6 10 Clear CLR 54 49     83%     30.06 30.06      
Apr 19 23:53 5 10 Clear CLR 56 49     77%     30.04 30.04      
Apr 19 22:53 3 10 Clear CLR 56 49     77%     30.03 30.03      
Jun 12 02:53 E 6 10 Mostly Clear FEW090 FEW220 57 51     81%     29.97 29.96      
Jun 10 23:53 SW 6 10 Clear   63 57     81%     29.87 29.86      
Jun 10 06:53 WSW 6 10 Cloudy BKN020 OVC026 62 58     86%     29.88 29.87      
Jun 10 05:53 WSW 3 10 Mostly Cloudy BKN023 62 57     84%     29.87 29.86      
Jun 09 15:53 WSW 14 10 Partly Cloudy FEW013 SCT100 69 60     73%     29.91 29.9      
Jun 09 12:53 WSW 14 9 Mostly Clear FEW017 FEW120 70 55     59%     29.96 29.95      
Jun 09 00:53 SSW 3 10 Mostly Clear FEW011 61 56     83%     29.94 29.93      
Jun 08 16:53 WSW 21 10 Clear and Windy   67 57     71%     29.95 29.95      
Jun 08 05:53 W 7 4 Clear   61 60     97%     29.99 29.98 0    
Jun 07 15:53 WSW 13 10 Mostly Clear FEW022 68 59     73%     29.94 29.93      
Jun 07 12:53 7 7 Cloudy OVC016 65 59     81%     29.98 29.98      
Jun 07 10:53 WSW 9 6 Haze SCT012 OVC014 63 59     87%     29.97 29.97     0
Jun 07 09:53 WSW 7 5 Fog/Mist BKN013 OVC018 63 59     87%     29.96 29.96